Year,Month,Day,Hour,Minute,Value (Times are PST for temperature in C)
2018,08,09,00,00,20.60
2018,08,09,00,01,20.60
2018,08,09,00,02,20.60
2018,08,09,00,03,20.60
2018,08,09,00,04,20.50
2018,08,09,00,05,20.50
2018,08,09,00,06,20.50
2018,08,09,00,07,20.50
2018,08,09,00,08,20.60
2018,08,09,00,09,20.60
2018,08,09,00,10,20.60
2018,08,09,00,11,20.50
2018,08,09,00,12,20.50
2018,08,09,00,13,20.50
2018,08,09,00,14,20.40
2018,08,09,00,15,20.40
2018,08,09,00,16,20.40
2018,08,09,00,17,20.40
2018,08,09,00,18,20.40
2018,08,09,00,19,20.40
2018,08,09,00,20,20.40
2018,08,09,00,21,20.50
2018,08,09,00,22,20.60
2018,08,09,00,23,20.60
2018,08,09,00,24,20.60
2018,08,09,00,25,20.60
2018,08,09,00,26,20.70
2018,08,09,00,27,20.70
2018,08,09,00,28,20.70
2018,08,09,00,29,20.70
2018,08,09,00,30,20.70
2018,08,09,00,31,20.70
2018,08,09,00,32,20.70
2018,08,09,00,33,20.70
2018,08,09,00,34,20.70
2018,08,09,00,35,20.70
2018,08,09,00,36,20.80
2018,08,09,00,37,20.70
2018,08,09,00,38,20.70
2018,08,09,00,39,20.70
2018,08,09,00,40,20.70
2018,08,09,00,41,20.70
2018,08,09,00,42,20.70
2018,08,09,00,43,20.70
2018,08,09,00,44,20.70
2018,08,09,00,45,20.70
2018,08,09,00,46,20.70
2018,08,09,00,47,20.60
2018,08,09,00,48,20.60
2018,08,09,00,49,20.60
2018,08,09,00,50,20.50
2018,08,09,00,51,20.50
2018,08,09,00,52,20.50
2018,08,09,00,53,20.40
2018,08,09,00,54,20.40
2018,08,09,00,55,20.40
2018,08,09,00,56,20.40
2018,08,09,00,57,20.30
2018,08,09,00,58,20.30
2018,08,09,00,59,20.30
2018,08,09,01,00,20.30
2018,08,09,01,01,20.30
2018,08,09,01,02,20.40
2018,08,09,01,03,20.40
2018,08,09,01,04,20.40
2018,08,09,01,05,20.40
2018,08,09,01,06,20.40
2018,08,09,01,07,20.40
2018,08,09,01,08,20.40
2018,08,09,01,09,20.40
2018,08,09,01,10,20.50
2018,08,09,01,11,20.50
2018,08,09,01,12,20.50
2018,08,09,01,13,20.40
2018,08,09,01,14,20.40
2018,08,09,01,15,20.40
2018,08,09,01,16,20.40
2018,08,09,01,17,20.40
2018,08,09,01,18,20.40
2018,08,09,01,19,20.40
2018,08,09,01,20,20.40
2018,08,09,01,21,20.40
2018,08,09,01,22,20.40
2018,08,09,01,23,20.40
2018,08,09,01,24,20.40
2018,08,09,01,25,20.40
2018,08,09,01,26,20.40
2018,08,09,01,27,20.40
2018,08,09,01,28,20.40
2018,08,09,01,29,20.40
2018,08,09,01,30,20.40
2018,08,09,01,31,20.40
2018,08,09,01,32,20.40
2018,08,09,01,33,20.30
2018,08,09,01,34,20.30
2018,08,09,01,35,20.30
2018,08,09,01,36,20.20
2018,08,09,01,37,20.20
2018,08,09,01,38,20.20
2018,08,09,01,39,20.10
2018,08,09,01,40,20.10
2018,08,09,01,41,20.00
2018,08,09,01,42,20.00
2018,08,09,01,43,19.90
2018,08,09,01,44,19.90
2018,08,09,01,45,19.80
2018,08,09,01,46,19.80
2018,08,09,01,47,19.70
2018,08,09,01,48,19.70
2018,08,09,01,49,19.70
2018,08,09,01,50,19.60
2018,08,09,01,51,19.60
2018,08,09,01,52,19.60
2018,08,09,01,53,19.50
2018,08,09,01,54,19.50
2018,08,09,01,55,19.40
2018,08,09,01,56,19.40
2018,08,09,01,57,19.30
2018,08,09,01,58,19.30
2018,08,09,01,59,19.30
2018,08,09,02,00,19.20
2018,08,09,02,01,19.20
2018,08,09,02,02,19.20
2018,08,09,02,03,19.20
2018,08,09,02,04,19.20
2018,08,09,02,05,19.20
2018,08,09,02,06,19.10
2018,08,09,02,07,19.20
2018,08,09,02,08,19.10
2018,08,09,02,09,19.10
2018,08,09,02,10,19.10
2018,08,09,02,11,19.10
2018,08,09,02,12,19.10
2018,08,09,02,13,19.10
2018,08,09,02,14,19.10
2018,08,09,02,15,19.10
2018,08,09,02,16,19.10
2018,08,09,02,17,19.10
2018,08,09,02,18,19.10
2018,08,09,02,19,19.10
2018,08,09,02,20,19.10
2018,08,09,02,21,19.10
2018,08,09,02,22,19.00
2018,08,09,02,23,19.00
2018,08,09,02,24,19.00
2018,08,09,02,25,19.00
2018,08,09,02,26,18.90
2018,08,09,02,27,18.90
2018,08,09,02,28,18.90
2018,08,09,02,29,18.90
2018,08,09,02,30,18.90
2018,08,09,02,31,18.90
2018,08,09,02,32,18.90
2018,08,09,02,33,18.90
2018,08,09,02,34,18.90
2018,08,09,02,35,18.90
2018,08,09,02,36,18.90
2018,08,09,02,37,18.90
2018,08,09,02,38,18.80
2018,08,09,02,39,18.80
2018,08,09,02,40,18.80
2018,08,09,02,41,18.80
2018,08,09,02,42,18.80
2018,08,09,02,43,18.70
2018,08,09,02,44,18.70
2018,08,09,02,45,18.70
2018,08,09,02,46,18.70
2018,08,09,02,47,18.70
2018,08,09,02,48,18.70
2018,08,09,02,49,18.60
2018,08,09,02,50,18.60
2018,08,09,02,51,18.60
2018,08,09,02,52,18.60
2018,08,09,02,53,18.60
2018,08,09,02,54,18.50
2018,08,09,02,55,18.50
2018,08,09,02,56,18.40
2018,08,09,02,57,18.40
2018,08,09,02,58,18.40
2018,08,09,02,59,18.40
2018,08,09,03,00,18.30
2018,08,09,03,01,18.30
2018,08,09,03,02,18.30
2018,08,09,03,03,18.30
2018,08,09,03,04,18.20
2018,08,09,03,05,18.20
2018,08,09,03,06,18.20
2018,08,09,03,07,18.20
2018,08,09,03,08,18.20
2018,08,09,03,09,18.10
2018,08,09,03,10,18.10
2018,08,09,03,11,18.10
2018,08,09,03,12,18.10
2018,08,09,03,13,18.10
2018,08,09,03,14,18.00
2018,08,09,03,15,18.00
2018,08,09,03,16,18.00
2018,08,09,03,17,17.90
2018,08,09,03,18,17.90
2018,08,09,03,19,17.90
2018,08,09,03,20,17.90
2018,08,09,03,21,17.80
2018,08,09,03,22,17.80
2018,08,09,03,23,17.80
2018,08,09,03,24,17.80
2018,08,09,03,25,17.80
2018,08,09,03,26,17.70
2018,08,09,03,27,17.70
2018,08,09,03,28,17.70
2018,08,09,03,29,17.60
2018,08,09,03,30,17.60
2018,08,09,03,31,17.60
2018,08,09,03,32,17.60
2018,08,09,03,33,17.50
2018,08,09,03,34,17.50
2018,08,09,03,35,17.50
2018,08,09,03,36,17.50
2018,08,09,03,37,17.40
2018,08,09,03,38,17.40
2018,08,09,03,39,17.40
2018,08,09,03,40,17.40
2018,08,09,03,41,17.30
2018,08,09,03,42,17.30
2018,08,09,03,43,17.30
2018,08,09,03,44,17.30
2018,08,09,03,45,17.20
2018,08,09,03,46,17.20
2018,08,09,03,47,17.20
2018,08,09,03,48,17.20
2018,08,09,03,49,17.10
2018,08,09,03,50,17.10
2018,08,09,03,51,17.10
2018,08,09,03,52,17.10
2018,08,09,03,53,17.00
2018,08,09,03,54,17.00
2018,08,09,03,55,17.00
2018,08,09,03,56,17.00
2018,08,09,03,57,16.90
2018,08,09,03,58,16.90
2018,08,09,03,59,16.90
2018,08,09,04,00,16.90
2018,08,09,04,01,16.90
2018,08,09,04,02,16.90
2018,08,09,04,03,16.80
2018,08,09,04,04,16.80
2018,08,09,04,05,16.80
2018,08,09,04,06,16.80
2018,08,09,04,07,16.80
2018,08,09,04,08,16.80
2018,08,09,04,09,16.80
2018,08,09,04,10,16.80
2018,08,09,04,11,16.80
2018,08,09,04,12,16.80
2018,08,09,04,13,16.80
2018,08,09,04,14,16.80
2018,08,09,04,15,16.80
2018,08,09,04,16,16.80
2018,08,09,04,17,16.80
2018,08,09,04,18,16.90
2018,08,09,04,19,16.90
2018,08,09,04,20,16.90
2018,08,09,04,21,16.90
2018,08,09,04,22,17.00
2018,08,09,04,23,17.00
2018,08,09,04,24,17.00
2018,08,09,04,25,17.00
2018,08,09,04,26,17.10
2018,08,09,04,27,17.10
2018,08,09,04,28,17.10
2018,08,09,04,29,17.10
2018,08,09,04,30,17.10
2018,08,09,04,31,17.10
2018,08,09,04,32,17.10
2018,08,09,04,33,17.10
2018,08,09,04,34,17.10
2018,08,09,04,35,17.10
2018,08,09,04,36,17.10
2018,08,09,04,37,17.10
2018,08,09,04,38,17.00
2018,08,09,04,39,17.00
2018,08,09,04,40,16.90
2018,08,09,04,41,16.90
2018,08,09,04,42,16.80
2018,08,09,04,43,16.80
2018,08,09,04,44,16.80
2018,08,09,04,45,16.70
2018,08,09,04,46,16.60
2018,08,09,04,47,16.60
2018,08,09,04,48,16.50
2018,08,09,04,49,16.50
2018,08,09,04,50,16.40
2018,08,09,04,51,16.30
2018,08,09,04,52,16.30
2018,08,09,04,53,16.20
2018,08,09,04,54,16.10
2018,08,09,04,55,16.10
2018,08,09,04,56,16.00
2018,08,09,04,57,16.00
2018,08,09,04,58,15.90
2018,08,09,04,59,15.80
2018,08,09,05,00,15.80
2018,08,09,05,01,15.70
2018,08,09,05,02,15.70
2018,08,09,05,03,15.60
2018,08,09,05,04,15.60
2018,08,09,05,05,15.50
2018,08,09,05,06,15.50
2018,08,09,05,07,15.40
2018,08,09,05,08,15.40
2018,08,09,05,09,15.30
2018,08,09,05,10,15.30
2018,08,09,05,11,15.30
2018,08,09,05,12,15.20
2018,08,09,05,13,15.20
2018,08,09,05,14,15.20
2018,08,09,05,15,15.10
2018,08,09,05,16,15.10
2018,08,09,05,17,15.10
2018,08,09,05,18,15.10
2018,08,09,05,19,15.00
2018,08,09,05,20,15.00
2018,08,09,05,21,15.00
2018,08,09,05,22,15.00
2018,08,09,05,23,15.00
2018,08,09,05,24,14.90
2018,08,09,05,25,14.90
2018,08,09,05,26,14.90
2018,08,09,05,27,14.90
2018,08,09,05,28,14.90
2018,08,09,05,29,14.80
2018,08,09,05,30,14.80
2018,08,09,05,31,14.80
2018,08,09,05,32,14.80
2018,08,09,05,33,14.70
2018,08,09,05,34,14.70
2018,08,09,05,35,14.60
2018,08,09,05,36,14.60
2018,08,09,05,37,14.60
2018,08,09,05,38,14.60
2018,08,09,05,39,14.60
2018,08,09,05,40,14.50
2018,08,09,05,41,14.50
2018,08,09,05,42,14.50
2018,08,09,05,43,14.50
2018,08,09,05,44,14.40
2018,08,09,05,45,14.40
2018,08,09,05,46,14.40
2018,08,09,05,47,14.40
2018,08,09,05,48,14.40
2018,08,09,05,49,14.30
2018,08,09,05,50,14.30
2018,08,09,05,51,14.30
2018,08,09,05,52,14.30
2018,08,09,05,53,14.30
2018,08,09,05,54,14.30
2018,08,09,05,55,14.30
2018,08,09,05,56,14.30
2018,08,09,05,57,14.30
2018,08,09,05,58,14.20
2018,08,09,05,59,14.20
2018,08,09,06,00,14.20
2018,08,09,06,01,14.20
2018,08,09,06,02,14.20
2018,08,09,06,03,14.20
2018,08,09,06,04,14.20
2018,08,09,06,05,14.20
2018,08,09,06,06,14.20
2018,08,09,06,07,14.20
2018,08,09,06,08,14.20
2018,08,09,06,09,14.20
2018,08,09,06,10,14.20
2018,08,09,06,11,14.20
2018,08,09,06,12,14.20
2018,08,09,06,13,14.20
2018,08,09,06,14,14.20
2018,08,09,06,15,14.20
2018,08,09,06,16,14.30
2018,08,09,06,17,14.30
2018,08,09,06,18,14.30
2018,08,09,06,19,14.30
2018,08,09,06,20,14.30
2018,08,09,06,21,14.30
2018,08,09,06,22,14.30
2018,08,09,06,23,14.30
2018,08,09,06,24,14.30
2018,08,09,06,25,14.30
2018,08,09,06,26,14.30
2018,08,09,06,27,14.30
2018,08,09,06,28,14.30
2018,08,09,06,29,14.40
2018,08,09,06,30,14.40
2018,08,09,06,31,14.40
2018,08,09,06,32,14.40
2018,08,09,06,33,14.40
2018,08,09,06,34,14.40
2018,08,09,06,35,14.50
2018,08,09,06,36,14.50
2018,08,09,06,37,14.50
2018,08,09,06,38,14.50
2018,08,09,06,39,14.60
2018,08,09,06,40,14.60
2018,08,09,06,41,14.60
2018,08,09,06,42,14.60
2018,08,09,06,43,14.60
2018,08,09,06,44,14.70
2018,08,09,06,45,14.70
2018,08,09,06,46,14.70
2018,08,09,06,47,14.70
2018,08,09,06,48,14.80
2018,08,09,06,49,14.80
2018,08,09,06,50,14.80
2018,08,09,06,51,14.80
2018,08,09,06,52,14.90
2018,08,09,06,53,14.90
2018,08,09,06,54,15.00
2018,08,09,06,55,15.00
2018,08,09,06,56,15.10
2018,08,09,06,57,15.10
2018,08,09,06,58,15.20
2018,08,09,06,59,15.20
2018,08,09,07,00,15.20
2018,08,09,07,01,15.20
2018,08,09,07,02,15.30
2018,08,09,07,03,15.30
2018,08,09,07,04,15.40
2018,08,09,07,05,15.40
2018,08,09,07,06,15.40
2018,08,09,07,07,15.50
2018,08,09,07,08,15.50
2018,08,09,07,09,15.60
2018,08,09,07,10,15.60
2018,08,09,07,11,15.70
2018,08,09,07,12,15.80
2018,08,09,07,13,15.80
2018,08,09,07,14,15.90
2018,08,09,07,15,15.90
2018,08,09,07,16,16.00
2018,08,09,07,17,16.00
2018,08,09,07,18,16.10
2018,08,09,07,19,16.20
2018,08,09,07,20,16.20
2018,08,09,07,21,16.30
2018,08,09,07,22,16.30
2018,08,09,07,23,16.30
2018,08,09,07,24,16.30
2018,08,09,07,25,16.40
2018,08,09,07,26,16.40
2018,08,09,07,27,16.40
2018,08,09,07,28,16.50
2018,08,09,07,29,16.60
2018,08,09,07,30,16.60
2018,08,09,07,31,16.60
2018,08,09,07,32,16.70
2018,08,09,07,33,16.70
2018,08,09,07,34,16.70
2018,08,09,07,35,16.70
2018,08,09,07,36,16.80
2018,08,09,07,37,16.80
2018,08,09,07,38,16.80
2018,08,09,07,39,16.80
2018,08,09,07,40,16.80
2018,08,09,07,41,16.90
2018,08,09,07,42,16.90
2018,08,09,07,43,17.00
2018,08,09,07,44,17.00
2018,08,09,07,45,17.00
2018,08,09,07,46,17.10
2018,08,09,07,47,17.10
2018,08,09,07,48,17.10
2018,08,09,07,49,17.20
2018,08,09,07,50,17.20
2018,08,09,07,51,17.20
2018,08,09,07,52,17.20
2018,08,09,07,53,17.20
2018,08,09,07,54,17.20
2018,08,09,07,55,17.20
2018,08,09,07,56,17.20
2018,08,09,07,57,17.30
2018,08,09,07,58,17.30
2018,08,09,07,59,17.40
2018,08,09,08,00,17.40
2018,08,09,08,01,17.50
2018,08,09,08,02,17.60
2018,08,09,08,03,17.60
2018,08,09,08,04,17.70
2018,08,09,08,05,17.80
2018,08,09,08,06,17.80
2018,08,09,08,07,17.90
2018,08,09,08,08,18.00
2018,08,09,08,09,18.00
2018,08,09,08,10,18.10
2018,08,09,08,11,18.20
2018,08,09,08,12,18.20
2018,08,09,08,13,18.30
2018,08,09,08,14,18.30
2018,08,09,08,15,18.30
2018,08,09,08,16,18.40
2018,08,09,08,17,18.40
2018,08,09,08,18,18.50
2018,08,09,08,19,18.60
2018,08,09,08,20,18.60
2018,08,09,08,21,18.60
2018,08,09,08,22,18.70
2018,08,09,08,23,18.70
2018,08,09,08,24,18.70
2018,08,09,08,25,18.80
2018,08,09,08,26,18.80
2018,08,09,08,27,18.80
2018,08,09,08,28,18.80
2018,08,09,08,29,18.90
2018,08,09,08,30,18.90
2018,08,09,08,31,19.10
2018,08,09,08,32,19.10
2018,08,09,08,33,19.10
2018,08,09,08,34,19.20
2018,08,09,08,35,19.20
2018,08,09,08,36,19.20
2018,08,09,08,37,19.20
2018,08,09,08,38,19.20
2018,08,09,08,39,19.30
2018,08,09,08,40,19.30
2018,08,09,08,41,19.20
2018,08,09,08,42,19.20
2018,08,09,08,43,19.30
2018,08,09,08,44,19.30
2018,08,09,08,45,19.40
2018,08,09,08,46,19.40
2018,08,09,08,47,19.50
2018,08,09,08,48,19.60
2018,08,09,08,49,19.60
2018,08,09,08,50,19.70
2018,08,09,08,51,19.70
2018,08,09,08,52,19.80
2018,08,09,08,53,19.80
2018,08,09,08,54,19.80
2018,08,09,08,55,19.90
2018,08,09,08,56,19.90
2018,08,09,08,57,20.00
2018,08,09,08,58,20.00
2018,08,09,08,59,20.10
2018,08,09,09,00,20.10
2018,08,09,09,01,20.10
2018,08,09,09,02,20.20
2018,08,09,09,03,20.20
2018,08,09,09,04,20.20
2018,08,09,09,05,20.30
2018,08,09,09,06,20.30
2018,08,09,09,07,20.30
2018,08,09,09,08,20.30
2018,08,09,09,09,20.30
2018,08,09,09,10,20.30
2018,08,09,09,11,20.40
2018,08,09,09,12,20.40
2018,08,09,09,13,20.40
2018,08,09,09,14,20.50
2018,08,09,09,15,20.50
2018,08,09,09,16,20.50
2018,08,09,09,17,20.50
2018,08,09,09,18,20.60
2018,08,09,09,19,20.60
2018,08,09,09,20,20.70
2018,08,09,09,21,20.70
2018,08,09,09,22,20.80
2018,08,09,09,23,20.90
2018,08,09,09,24,21.00
2018,08,09,09,25,21.10
2018,08,09,09,26,21.20
2018,08,09,09,27,21.30
2018,08,09,09,28,21.40
2018,08,09,09,29,21.50
2018,08,09,09,30,21.60
2018,08,09,09,31,21.70
2018,08,09,09,32,21.80
2018,08,09,09,33,21.90
2018,08,09,09,34,22.00
2018,08,09,09,35,22.00
2018,08,09,09,36,22.10
2018,08,09,09,37,22.30
2018,08,09,09,38,22.30
2018,08,09,09,39,22.40
2018,08,09,09,40,22.50
2018,08,09,09,41,22.50
2018,08,09,09,42,22.60
2018,08,09,09,43,22.60
2018,08,09,09,44,22.70
2018,08,09,09,45,22.60
2018,08,09,09,46,22.60
2018,08,09,09,47,22.60
2018,08,09,09,48,22.60
2018,08,09,09,49,22.60
2018,08,09,09,50,22.60
2018,08,09,09,51,22.60
2018,08,09,09,52,22.60
2018,08,09,09,53,22.60
2018,08,09,09,54,22.60
2018,08,09,09,55,22.60
2018,08,09,09,56,22.60
2018,08,09,09,57,22.70
2018,08,09,09,58,22.70
2018,08,09,09,59,22.70
2018,08,09,10,00,22.70
2018,08,09,10,01,22.70
2018,08,09,10,02,22.70
2018,08,09,10,03,22.70
2018,08,09,10,04,22.70
2018,08,09,10,05,22.70
2018,08,09,10,06,22.70
2018,08,09,10,07,22.60
2018,08,09,10,08,22.60
2018,08,09,10,09,22.60
2018,08,09,10,10,22.60
2018,08,09,10,11,22.60
2018,08,09,10,12,22.60
2018,08,09,10,13,22.60
2018,08,09,10,14,22.60
2018,08,09,10,15,22.50
2018,08,09,10,16,22.50
2018,08,09,10,17,22.40
2018,08,09,10,18,22.30
2018,08,09,10,19,22.30
2018,08,09,10,20,22.20
2018,08,09,10,21,22.20
2018,08,09,10,22,22.10
2018,08,09,10,23,22.10
2018,08,09,10,24,22.00
2018,08,09,10,25,22.00
2018,08,09,10,26,22.00
2018,08,09,10,27,22.00
2018,08,09,10,28,21.90
2018,08,09,10,29,21.90
2018,08,09,10,30,21.80
2018,08,09,10,31,21.80
2018,08,09,10,32,21.70
2018,08,09,10,33,21.70
2018,08,09,10,34,21.80
2018,08,09,10,35,21.80
2018,08,09,10,36,21.90
2018,08,09,10,37,21.90
2018,08,09,10,38,21.90
2018,08,09,10,39,21.90
2018,08,09,10,40,21.90
2018,08,09,10,41,21.80
2018,08,09,10,42,21.80
2018,08,09,10,43,21.80
2018,08,09,10,44,21.80
2018,08,09,10,45,21.80
2018,08,09,10,46,21.90
2018,08,09,10,47,21.90
2018,08,09,10,48,21.90
2018,08,09,10,49,21.90
2018,08,09,10,50,21.90
2018,08,09,10,51,21.90
2018,08,09,10,52,21.90
2018,08,09,10,53,22.00
2018,08,09,10,54,22.10
2018,08,09,10,55,22.20
2018,08,09,10,56,22.20
2018,08,09,10,57,22.20
2018,08,09,10,58,22.20
2018,08,09,10,59,22.20
2018,08,09,11,00,22.20
2018,08,09,11,01,22.20
2018,08,09,11,02,22.10
2018,08,09,11,03,22.10
2018,08,09,11,04,22.20
2018,08,09,11,05,22.20
2018,08,09,11,06,22.20
2018,08,09,11,07,22.20
2018,08,09,11,08,22.30
2018,08,09,11,09,22.30
2018,08,09,11,10,22.40
2018,08,09,11,11,22.50
2018,08,09,11,12,22.60
2018,08,09,11,13,22.70
2018,08,09,11,14,22.80
2018,08,09,11,15,22.90
2018,08,09,11,16,23.00
2018,08,09,11,17,23.10
2018,08,09,11,18,23.10
2018,08,09,11,19,23.20
2018,08,09,11,20,23.20
2018,08,09,11,21,23.20
2018,08,09,11,22,23.20
2018,08,09,11,23,23.10
2018,08,09,11,24,23.10
2018,08,09,11,25,23.10
2018,08,09,11,26,23.10
2018,08,09,11,27,23.20
2018,08,09,11,28,23.30
2018,08,09,11,29,23.30
2018,08,09,11,30,23.40
2018,08,09,11,31,23.50
2018,08,09,11,32,23.60
2018,08,09,11,33,23.70
2018,08,09,11,34,23.80
2018,08,09,11,35,23.90
2018,08,09,11,36,24.00
2018,08,09,11,37,24.00
2018,08,09,11,38,24.00
2018,08,09,11,39,24.00
2018,08,09,11,40,24.10
2018,08,09,11,41,24.10
2018,08,09,11,42,24.10
2018,08,09,11,43,24.10
2018,08,09,11,44,24.10
2018,08,09,11,45,24.10
2018,08,09,11,46,24.10
2018,08,09,11,47,24.30
2018,08,09,11,48,24.40
2018,08,09,11,49,24.60
2018,08,09,11,50,24.60
2018,08,09,11,51,24.50
2018,08,09,11,52,24.50
2018,08,09,11,53,24.40
2018,08,09,11,54,24.40
2018,08,09,11,55,24.40
2018,08,09,11,56,24.30
2018,08,09,11,57,24.30
2018,08,09,11,58,24.30
2018,08,09,11,59,24.30
2018,08,09,12,00,24.30
2018,08,09,12,01,24.30
2018,08,09,12,02,24.30
2018,08,09,12,03,24.40
2018,08,09,12,04,24.40
2018,08,09,12,05,24.50
2018,08,09,12,06,24.60
2018,08,09,12,07,24.60
2018,08,09,12,08,24.60
2018,08,09,12,09,24.50
2018,08,09,12,10,24.50
2018,08,09,12,11,24.60
2018,08,09,12,12,24.60
2018,08,09,12,13,24.50
2018,08,09,12,14,24.50
2018,08,09,12,15,24.40
2018,08,09,12,16,24.40
2018,08,09,12,17,24.40
2018,08,09,12,18,24.50
2018,08,09,12,19,24.50
2018,08,09,12,20,24.50
2018,08,09,12,21,24.50
2018,08,09,12,22,24.40
2018,08,09,12,23,24.40
2018,08,09,12,24,24.50
2018,08,09,12,25,24.50
2018,08,09,12,26,24.60
2018,08,09,12,27,24.70
2018,08,09,12,28,24.70
2018,08,09,12,29,24.70
2018,08,09,12,30,24.70
2018,08,09,12,31,24.80
2018,08,09,12,32,24.80
2018,08,09,12,33,24.80
2018,08,09,12,34,24.90
2018,08,09,12,35,24.90
2018,08,09,12,36,25.00
2018,08,09,12,37,25.00
2018,08,09,12,38,25.10
2018,08,09,12,39,25.10
2018,08,09,12,40,25.10
2018,08,09,12,41,25.10
2018,08,09,12,42,25.10
2018,08,09,12,43,25.10
2018,08,09,12,44,25.20
2018,08,09,12,45,25.20
2018,08,09,12,46,25.30
2018,08,09,12,47,25.30
2018,08,09,12,48,25.40
2018,08,09,12,49,25.40
2018,08,09,12,50,25.50
2018,08,09,12,51,25.50
2018,08,09,12,52,25.60
2018,08,09,12,53,25.70
2018,08,09,12,54,25.80
2018,08,09,12,55,25.90
2018,08,09,12,56,25.90
2018,08,09,12,57,26.00
2018,08,09,12,58,26.00
2018,08,09,12,59,26.00
2018,08,09,13,00,26.00
2018,08,09,13,01,26.10
2018,08,09,13,02,26.10
2018,08,09,13,03,26.20
2018,08,09,13,04,26.20
2018,08,09,13,05,26.10
2018,08,09,13,06,26.10
2018,08,09,13,07,26.10
2018,08,09,13,08,26.10
2018,08,09,13,09,26.10
2018,08,09,13,10,26.20
2018,08,09,13,11,26.20
2018,08,09,13,12,26.10
2018,08,09,13,13,25.90
2018,08,09,13,14,25.80
2018,08,09,13,15,25.70
2018,08,09,13,16,25.60
2018,08,09,13,17,25.50
2018,08,09,13,18,25.50
2018,08,09,13,19,25.40
2018,08,09,13,20,25.40
2018,08,09,13,21,25.50
2018,08,09,13,22,25.50
2018,08,09,13,23,25.50
2018,08,09,13,24,25.60
2018,08,09,13,25,25.60
2018,08,09,13,26,25.60
2018,08,09,13,27,25.50
2018,08,09,13,28,25.50
2018,08,09,13,29,25.60
2018,08,09,13,30,25.60
2018,08,09,13,31,25.60
2018,08,09,13,32,25.60
2018,08,09,13,33,25.60
2018,08,09,13,34,25.60
2018,08,09,13,35,25.70
2018,08,09,13,36,25.70
2018,08,09,13,37,25.80
2018,08,09,13,38,25.90
2018,08,09,13,39,26.00
2018,08,09,13,40,26.20
2018,08,09,13,41,26.30
2018,08,09,13,42,26.40
2018,08,09,13,43,26.50
2018,08,09,13,44,26.60
2018,08,09,13,45,26.60
2018,08,09,13,46,26.70
2018,08,09,13,47,26.70
2018,08,09,13,48,26.80
2018,08,09,13,49,26.90
2018,08,09,13,50,26.90
2018,08,09,13,51,26.90
2018,08,09,13,52,26.90
2018,08,09,13,53,26.80
2018,08,09,13,54,26.80
2018,08,09,13,55,26.70
2018,08,09,13,56,26.70
2018,08,09,13,57,26.70
2018,08,09,13,58,26.70
2018,08,09,13,59,26.60
2018,08,09,14,00,26.50
2018,08,09,14,01,26.30
2018,08,09,14,02,26.10
2018,08,09,14,03,26.00
2018,08,09,14,04,25.80
2018,08,09,14,05,25.70
2018,08,09,14,06,25.70
2018,08,09,14,07,25.60
2018,08,09,14,08,25.60
2018,08,09,14,09,25.60
2018,08,09,14,10,25.70
2018,08,09,14,11,25.70
2018,08,09,14,12,25.80
2018,08,09,14,13,25.80
2018,08,09,14,14,25.90
2018,08,09,14,15,25.90
2018,08,09,14,16,25.90
2018,08,09,14,17,26.00
2018,08,09,14,18,26.10
2018,08,09,14,19,26.20
2018,08,09,14,20,26.30
2018,08,09,14,21,26.50
2018,08,09,14,22,26.60
2018,08,09,14,23,26.70
2018,08,09,14,24,26.80
2018,08,09,14,25,26.90
2018,08,09,14,26,27.00
2018,08,09,14,27,27.00
2018,08,09,14,28,27.10
2018,08,09,14,29,27.10
2018,08,09,14,30,27.20
2018,08,09,14,31,27.20
2018,08,09,14,32,27.20
2018,08,09,14,33,27.20
2018,08,09,14,34,27.30
2018,08,09,14,35,27.40
2018,08,09,14,36,27.50
2018,08,09,14,37,27.60
2018,08,09,14,38,27.60
2018,08,09,14,39,27.60
2018,08,09,14,40,27.70
2018,08,09,14,41,27.80
2018,08,09,14,42,27.80
2018,08,09,14,43,27.90
2018,08,09,14,44,27.90
2018,08,09,14,45,27.80
2018,08,09,14,46,27.80
2018,08,09,14,47,27.80
2018,08,09,14,48,27.80
2018,08,09,14,49,27.80
2018,08,09,14,50,27.90
2018,08,09,14,51,27.90
2018,08,09,14,52,27.90
2018,08,09,14,53,27.90
2018,08,09,14,54,27.90
2018,08,09,14,55,28.00
2018,08,09,14,56,28.00
2018,08,09,14,57,28.10
2018,08,09,14,58,28.10
2018,08,09,14,59,28.20
2018,08,09,15,00,28.20
2018,08,09,15,01,28.30
2018,08,09,15,02,28.30
2018,08,09,15,03,28.40
2018,08,09,15,04,28.50
2018,08,09,15,05,28.60
2018,08,09,15,06,28.70
2018,08,09,15,07,28.70
2018,08,09,15,08,28.70
2018,08,09,15,09,28.80
2018,08,09,15,10,28.90
2018,08,09,15,11,29.00
2018,08,09,15,12,29.00
2018,08,09,15,13,29.00
2018,08,09,15,14,28.90
2018,08,09,15,15,28.90
2018,08,09,15,16,28.90
2018,08,09,15,17,28.90
2018,08,09,15,18,29.00
2018,08,09,15,19,29.10
2018,08,09,15,20,29.20
2018,08,09,15,21,29.30
2018,08,09,15,22,29.30
2018,08,09,15,23,29.30
2018,08,09,15,24,29.30
2018,08,09,15,25,29.20
2018,08,09,15,26,29.20
2018,08,09,15,27,29.20
2018,08,09,15,28,29.30
2018,08,09,15,29,29.30
2018,08,09,15,30,29.30
2018,08,09,15,31,29.30
2018,08,09,15,32,29.30
2018,08,09,15,33,29.30
2018,08,09,15,34,29.30
2018,08,09,15,35,29.30
2018,08,09,15,36,29.30
2018,08,09,15,37,29.30
2018,08,09,15,38,29.30
2018,08,09,15,39,29.40
2018,08,09,15,40,29.40
2018,08,09,15,41,29.50
2018,08,09,15,42,29.60
2018,08,09,15,43,29.60
2018,08,09,15,44,29.60
2018,08,09,15,45,29.60
2018,08,09,15,46,29.60
2018,08,09,15,47,29.60
2018,08,09,15,48,29.60
2018,08,09,15,49,29.60
2018,08,09,15,50,29.60
2018,08,09,15,51,29.60
2018,08,09,15,52,29.60
2018,08,09,15,53,29.60
2018,08,09,15,54,29.60
2018,08,09,15,55,29.60
2018,08,09,15,56,29.60
2018,08,09,15,57,29.60
2018,08,09,15,58,29.70
2018,08,09,15,59,29.80
2018,08,09,16,00,29.70
2018,08,09,16,01,29.70
2018,08,09,16,02,29.70
2018,08,09,16,03,29.70
2018,08,09,16,04,29.80
2018,08,09,16,05,29.90
2018,08,09,16,06,30.00
2018,08,09,16,07,30.10
2018,08,09,16,08,30.00
2018,08,09,16,09,29.90
2018,08,09,16,10,29.80
2018,08,09,16,11,29.80
2018,08,09,16,12,29.70
2018,08,09,16,13,29.70
2018,08,09,16,14,29.60
2018,08,09,16,15,29.60
2018,08,09,16,16,29.60
2018,08,09,16,17,29.60
2018,08,09,16,18,29.60
2018,08,09,16,19,29.60
2018,08,09,16,20,29.60
2018,08,09,16,21,29.50
2018,08,09,16,22,29.50
2018,08,09,16,23,29.50
2018,08,09,16,24,29.50
2018,08,09,16,25,29.50
2018,08,09,16,26,29.40
2018,08,09,16,27,29.40
2018,08,09,16,28,29.50
2018,08,09,16,29,29.50
2018,08,09,16,30,29.60
2018,08,09,16,31,29.70
2018,08,09,16,32,29.70
2018,08,09,16,33,29.70
2018,08,09,16,34,29.70
2018,08,09,16,35,29.70
2018,08,09,16,36,29.70
2018,08,09,16,37,29.70
2018,08,09,16,38,29.70
2018,08,09,16,39,29.70
2018,08,09,16,40,29.60
2018,08,09,16,41,29.60
2018,08,09,16,42,29.70
2018,08,09,16,43,29.70
2018,08,09,16,44,29.70
2018,08,09,16,45,29.70
2018,08,09,16,46,29.80
2018,08,09,16,47,29.80
2018,08,09,16,48,29.80
2018,08,09,16,49,29.80
2018,08,09,16,50,29.80
2018,08,09,16,51,29.80
2018,08,09,16,52,29.80
2018,08,09,16,53,29.80
2018,08,09,16,54,29.80
2018,08,09,16,55,29.80
2018,08,09,16,56,29.80
2018,08,09,16,57,29.70
2018,08,09,16,58,29.70
2018,08,09,16,59,29.70
2018,08,09,17,00,29.80
2018,08,09,17,01,29.80
2018,08,09,17,02,29.80
2018,08,09,17,03,29.80
2018,08,09,17,04,29.80
2018,08,09,17,05,29.80
2018,08,09,17,06,29.90
2018,08,09,17,07,29.80
2018,08,09,17,08,29.80
2018,08,09,17,09,29.80
2018,08,09,17,10,29.70
2018,08,09,17,11,29.70
2018,08,09,17,12,29.70
2018,08,09,17,13,29.70
2018,08,09,17,14,29.60
2018,08,09,17,15,29.60
2018,08,09,17,16,29.60
2018,08,09,17,17,29.60
2018,08,09,17,18,29.60
2018,08,09,17,19,29.50